User: anonymous   Login
Location: Novo Ouro Preto
(19.8840°S, 43.9844°W)
Time: 03:29:31
(UTC+00:00)
Language:

Gbstr 26 Del rocket - Orbit

View from above orbital plane
View from above orbital plane
View from above satellite
View from above satellite

Ground track
Ground track

The orbit data is extracted from the following two-line orbital elements,

1 25876U 99041E   20338.44521861 -.00000076  00000-0  29101-4 0  9999
2 25876  51.7649   3.1883 0531494 116.9822 248.6398 14.04485840 92403
Epoch (UTC): 03 December 2020 10:41:06
Eccentricity: 0.0531494
inclination: 51.7649°
perigee height: 492 km
apogee height: 1264 km
right ascension of ascending node: 3.1883°
argument of perigee: 116.9822°
revolutions per day: 14.04485840
mean anomaly at epoch: 248.6398°
orbit number at epoch: 9240

The dashed part of the orbit path shows where the satellite is in the earth's shadow,  

DLR